CAPE
2 2 2 0 0 0 0 0 0 0 0 0 0 0 0 2 0 0 1 1 0 0 0 0 0 0 1 0 0 0 0 0 0 0 0 0 0 0 0 0 0 0 0
0 0 1 1 0 0 0 0 0 0 0 0 0 0 0 0 0 0 0 0 0 0 0 0 0 1 0 0 4 0 0 0 0 0 0 0 0 0 0 0 0 0 0
0 0 0 1 0 0 0 0 0 0 0 0 0 0 0 0 0 0 0 0 0 0 0 0 0 0 0 0 1 4 2 0 0 0 0 0 0 0 0 0 0 0 0
0 0 0 0 0 0 0 0 0 0 0 0 0 1 4 3 0 0 0 0 0 3 2 0 0 0 0 2 0 0 0 0 0 0 0 0 0 0 0 0 0 0 0
0 0 0 0 0 0 1 0 0 2 3 4 13 11 5 1 0 0 0 1 1 0 0 0 0 0 0 0 0 0 0 0 0 0 0 0 0 0 0 0 0 0 0
0 0 0 0 0 0 0 1 4 5 13 23 5 1 0 0 0 0 0 0 0 0 0 0 0 0 0 0 0 0 0 0 0 0 2 3 3 1 0 0 0 0 0
0 0 0 0 0 0 0 0 2 5 5 2 0 0 0 0 0 1 1 0 0 0 0 0 0 1 0 0 0 0 0 0 0 3 6 2 5 0 0 0 0 0 0
1 0 0 0 1 0 2 1 1 0 0 0 0 0 1 1 0 1 0 0 0 1 1 1 1 0 0 0 0 1 2 3 5 3 3 0 0 0 3 4 3 6 5
2 1 1 0 0 0 2 0 0 1 1 1 1 1 1 1 0 0 0 1 1 1 2 1 1 2 3 4 1 2 2 3 2 0 0 0 0 0 1 7 8 7 8
1 1 0 0 0 1 1 1 1 1 2 1 1 2 2 2 1 0 0 0 0 1 1 3 4 3 4 1 0 0 0 2 1 1 2 0 0 0 0 1 8 12 10
0 0 0 0 0 0 0 0 0 1 1 1 1 2 2 2 3 1 0 0 1 2 1 1 3 4 5 4 3 3 3 2 0 0 0 0 0 0 1 6 3 6 8
0 0 0 0 0 0 1 2 1 1 2 2 2 2 3 3 2 3 3 3 3 2 3 4 6 7 2 5 2 0 1 2 3 0 0 2 4 6 5 2 2 3 3
0 0 0 0 0 0 1 1 1 0 0 1 1 1 2 2 2 5 3 2 2 3 4 3 2 1 1 6 3 1 0 3 4 6 6 6 8 7 4 3 1 0 0
0 0 0 0 1 1 0 1 1 1 1 2 3 2 2 2 2 3 4 6 4 5 3 4 2 2 5 4 7 3 6 5 6 8 7 9 6 7 4 1 2 2 3
0 0 1 1 1 2 2 2 2 3 2 5 8 8 9 8 12 10 9 10 12 5 5 6 8 7 9 10 8 5 6 6 8 9 10 10 7 3 3 5 7 7 7
2 3 4 5 4 4 6 8 7 4 4 3 3 7 14 13 7 6 6 5 4 2 9 12 16 16 14 13 17 11 8 7 11 11 12 11 12 11 11 10 12 14 13
1 1 2 3 3 3 5 7 7 10 5 7 8 5 6 8 6 4 4 3 3 0 10 14 17 16 16 16 15 13 14 19 8 12 14 14 15 14 16 16 15 14 13
3 3 4 2 4 5 5 7 7 9 8 9 5 6 7 7 5 3 0 0 1 3 8 12 17 17 15 13 13 12 12 13 15 14 14 15 15 18 18 16 16 15 16
1 0 2 2 1 1 1 1 2 2 3 2 1 1 0 0 1 1 1 5 6 7 6 7 11 12 14 12 18 17 14 15 13 13 15 15 17 20 15 14 16 6 8
0 1 0 0 0 0 0 1 2 3 3 4 5 6 2 1 5 6 8 8 8 8 9 8 9 10 13 14 16 16 17 14 13 14 16 17 18 20 18 16 17 18 15
0 0 0 0 0 0 1 1 2 4 4 4 8 1 0 4 5 7 7 6 5 7 6 8 8 9 9 10 10 12 10 10 9 9 12 13 11 15 14 17 16 15 15
0 0 0 0 1 1 1 1 2 1 2 2 4 2 0 4 5 5 5 4 5 7 7 6 7 7 5 6 6 7 6 6 8 10 11 8 12 14 15 14 14 13 12
0 0 0 0 0 0 0 0 1 2 2 3 3 3 3 4 3 3 4 3 4 4 3 3 4 2 3 4 4 6 6 6 9 10 10 10 11 12 13 13 11 11 10
0 0 0 0 0 0 0 1 1 0 1 1 1 2 2 2 2 2 1 2 2 2 2 1 1 1 0 0 3 3 4 5 8 9 8 8 7 8 8 7 8 5 7
0 0 0 0 0 0 0 0 0 0 0 0 0 1 0 1 1 1 1 1 1 0 0 0 1 0 0 0 0 0 0 0 2 2 6 5 4 3 4 6 5 6 5
0 0 0 0 0 0 0 0 0 0 0 0 0 0 0 0 1 1 1 1 0 0 0 0 0 0 0 0 0 0 0 0 0 0 4 5 5 4 5 4 2 7 5
CIN
0 0 0 0 0 0 0 0 0 0 0 0 0 0 0 -108 0 0 0 0 0 0 0 0 0 0 0 0 0 0 0 0 0 0 0 0 0 0 0 0 0 0 0
0 0 0 0 0 0 0 0 0 0 0 0 0 0 -9 0 0 0 0 0 0 0 0 0 0 0 0 -1 0 0 0 0 0 0 0 0 0 0 0 0 0 0 0
0 0 0 0 0 0 0 0 0 0 0 0 0 0 0 0 0 0 0 0 0 0 0 0 0 0 0 0 0 0 0 0 0 0 0 0 0 0 0 0 0 0 0
0 0 0 0 0 0 0 0 0 0 0 0 0 0 -70 0 0 0 0 0 0 0 0 0 0 0 0 0 0 0 0 0 0 0 0 0 0 0 0 0 0 0 0
0 0 0 0 0 0 0 0 0 0 0 0 -90 -125 -41 0 0 0 0 0 0 0 0 0 0 0 0 0 0 0 0 0 0 0 0 0 0 0 0 0 0 0 0
0 0 0 0 0 0 0 0 0 0 -157 -109 0 0 0 0 0 0 0 0 0 0 0 0 0 0 0 0 0 0 0 0 0 0 0 0 0 0 0 0 0 0 0
0 0 0 0 0 0 0 0 0 0 0 0 0 0 0 0 0 0 0 0 0 0 0 0 0 0 0 0 0 0 0 0 0 0 0 0 0 0 0 0 0 0 0
-266 0 0 0 0 0 0 0 0 0 0 0 0 0 0 0 0 0 0 0 0 0 0 0 0 0 0 0 0 0 0 0 0 0 0 0 0 0 0 0 0 0 0
0 0 0 0 0 0 0 0 0 0 0 0 0 0 0 0 0 0 0 0 0 0 0 0 0 0 0 0 0 0 0 0 0 0 -1 0 0 -1 0 0 0 0 0
0 0 0 0 0 0 0 0 0 0 0 0 0 0 0 0 0 0 0 0 0 0 0 0 0 0 0 0 0 0 0 0 0 0 0 0 0 0 0 0 0 0 0
0 0 0 0 0 0 0 0 0 0 0 0 0 0 0 0 0 0 0 0 0 0 0 0 0 0 0 0 0 0 0 0 0 0 0 0 0 0 0 0 0 0 0
0 0 0 0 0 0 0 0 0 0 0 0 0 0 0 0 0 0 0 0 0 0 0 0 0 0 -1 -3 -1 0 0 0 0 0 0 0 0 0 0 0 0 0 0
0 0 0 0 0 0 0 0 0 0 0 0 0 0 0 0 0 0 0 0 0 0 0 0 0 0 0 0 0 0 0 0 0 0 0 0 0 0 0 0 0 0 0
0 0 0 0 0 0 0 0 0 0 0 0 0 0 0 0 0 0 0 0 0 0 0 0 0 0 0 0 0 0 0 0 0 0 0 0 0 0 0 0 0 0 0
0 0 0 0 0 0 0 0 0 0 0 0 0 0 0 0 0 0 0 0 0 0 0 0 0 0 0 0 0 0 0 0 0 0 0 0 0 0 0 0 0 0 0
0 0 0 0 0 0 0 0 0 0 0 0 0 0 0 0 0 0 0 0 0 0 0 0 0 0 0 0 0 0 0 0 0 0 0 0 0 0 0 0 0 0 0
0 0 0 0 0 0 0 0 0 0 0 0 0 0 0 0 0 0 0 0 0 0 0 0 0 0 0 0 0 0 0 0 0 0 0 0 0 0 -1 0 0 0 0
0 0 0 0 0 0 0 0 0 0 0 0 0 0 0 0 0 0 0 0 0 0 0 0 0 0 0 0 0 0 0 0 0 0 0 0 0 0 0 0 0 0 0
0 0 0 0 0 0 0 0 0 0 0 0 0 0 0 0 0 0 0 0 0 0 0 0 0 0 0 0 0 0 0 0 0 0 0 0 0 0 0 0 0 0 0
0 0 0 0 0 0 0 0 0 0 0 0 0 0 0 0 0 0 0 0 0 0 0 0 0 0 0 0 0 0 0 0 0 0 0 0 0 0 0 0 0 0 0
0 0 0 0 0 0 0 0 0 0 0 0 0 0 0 0 0 0 0 0 0 0 0 0 0 0 0 0 0 0 0 0 0 0 0 0 0 0 0 0 0 0 0
0 0 0 0 0 0 0 0 0 0 0 0 0 0 0 0 0 0 0 0 0 0 0 0 0 0 0 0 0 0 0 0 0 0 0 0 0 0 0 0 0 0 0
0 0 0 0 0 0 0 0 0 0 0 0 0 0 0 0 0 0 0 0 0 0 0 0 0 0 0 0 0 0 0 0 0 0 0 0 0 0 0 0 0 0 0
0 0 0 0 0 0 0 0 0 0 0 0 0 0 0 0 0 0 0 0 0 0 0 0 0 0 0 0 0 0 0 0 0 0 0 0 0 0 0 0 0 0 0
0 0 0 0 0 0 0 0 0 0 0 0 0 0 0 0 0 0 0 0 0 0 0 0 0 0 0 0 0 0 0 0 0 0 0 0 0 0 0 0 0 0 0
0 0 0 0 0 0 0 0 0 0 0 0 0 0 0 0 0 0 0 0 0 0 0 0 0 0 0 0 0 0 0 0 0 0 0 0 0 0 0 0 0 0 0
Wind_Speed
18 17 18 17 18 16 14 15 15 15 15 14 14 14 14 13 12 11 12 12 13 14 12 13 14 12 9 9 8 8 10 9 11 5 7 8 5 6 6 8 8 9 8
18 18 18 16 16 17 18 17 15 16 15 15 15 15 15 12 10 11 12 14 16 15 15 12 15 9 15 13 11 13 13 11 8 11 9 5 5 6 7 8 7 6 7
17 16 17 17 18 18 16 15 15 16 16 14 14 14 12 12 11 16 16 15 16 17 16 16 16 14 14 12 13 12 11 7 7 5 4 2 3 4 6 5 5 6 4
18 17 17 17 17 15 15 15 14 14 14 15 14 15 14 14 15 14 13 14 14 14 14 13 14 15 17 14 12 11 9 8 5 3 3 3 3 4 4 5 6 5 7
17 17 17 13 13 14 14 14 14 14 14 14 13 13 13 13 9 11 12 13 13 12 11 11 12 13 14 11 9 8 9 5 4 4 3 3 5 4 5 4 6 7 8
16 16 14 13 13 13 14 14 13 14 14 12 12 12 12 9 11 13 10 8 10 11 6 4 5 7 9 8 9 8 7 8 5 3 2 4 4 5 5 6 6 7 6
14 13 12 12 12 11 10 11 11 12 10 10 10 7 5 3 4 7 5 2 3 6 7 7 7 8 10 11 13 14 13 14 8 4 4 4 4 5 4 7 8 8 9
8 7 7 7 6 5 5 5 1 4 5 5 7 7 8 9 9 9 13 9 10 10 9 8 8 9 8 9 7 7 7 6 5 3 1 3 4 4 5 7 8 10 10
7 6 5 4 5 6 7 7 6 8 8 9 9 10 11 11 15 14 14 11 13 13 12 11 10 10 15 12 8 7 5 4 5 5 5 3 3 4 4 5 7 8 9
10 9 8 8 9 9 9 10 10 10 10 9 12 12 16 12 17 18 14 8 11 8 10 11 17 11 11 9 5 4 4 4 3 2 2 2 2 1 5 5 5 8 9
12 12 12 11 11 10 10 9 9 10 11 11 13 12 13 13 16 22 20 9 7 7 7 6 5 8 6 3 2 3 3 4 4 2 2 2 1 3 4 3 5 7 9
14 14 14 13 10 9 12 11 11 11 12 11 11 11 9 11 18 21 21 17 11 7 6 4 4 6 4 2 4 8 7 2 1 2 2 3 3 4 4 6 8 8 9
16 16 14 14 13 12 12 12 10 10 9 8 7 7 7 7 8 18 17 15 13 7 4 5 4 3 3 2 4 7 3 1 2 3 3 3 3 4 7 8 9 11 12
18 16 14 14 14 14 11 9 9 8 7 7 6 6 6 6 5 5 5 5 7 5 3 3 3 4 3 4 2 3 2 2 3 3 4 4 4 4 6 7 8 8 9
17 14 13 12 14 14 13 10 11 12 10 8 7 6 6 7 7 9 9 6 5 5 3 3 3 3 3 2 1 1 1 2 3 3 4 5 6 6 7 7 8 8 10
15 11 10 9 10 9 10 12 24 21 21 20 18 11 9 15 16 15 14 14 13 10 4 4 5 5 5 5 4 3 3 4 4 6 7 8 8 9 9 9 8 9 10
15 13 10 10 9 10 9 9 11 16 28 29 26 24 22 18 18 17 14 12 16 10 7 7 6 6 6 6 6 6 7 6 7 7 8 8 9 9 10 8 9 9 9
15 17 11 10 10 10 9 9 8 8 9 9 19 18 19 20 19 19 16 11 8 9 7 7 7 7 7 8 8 8 8 8 8 8 9 9 9 9 9 9 9 10 10
13 11 11 11 10 11 10 10 9 9 8 8 7 10 12 15 16 17 16 9 8 8 8 8 8 8 8 8 8 8 8 8 8 9 8 9 9 8 8 9 10 11 11
14 16 13 10 10 10 9 9 8 8 8 8 7 8 7 8 9 9 9 8 8 7 7 8 8 8 9 9 9 9 9 10 9 9 9 9 9 8 10 10 9 9 10
10 11 13 11 10 9 9 9 8 8 7 7 8 9 10 8 8 7 7 7 7 7 7 7 7 8 8 8 9 9 10 10 10 10 10 9 9 9 9 8 9 9 10
10 10 10 10 9 9 9 8 8 8 8 7 7 8 10 7 7 7 7 6 6 6 6 7 7 8 8 8 9 9 10 10 10 9 9 8 8 8 8 9 9 9 10
11 11 11 9 9 10 9 9 8 8 8 7 6 6 6 6 6 6 6 6 7 7 6 7 7 7 7 8 8 8 9 9 9 9 9 9 9 9 9 10 10 10 10
11 11 11 10 9 9 8 8 7 8 7 6 6 6 6 6 6 7 7 7 7 7 7 7 7 10 9 9 8 8 8 8 8 9 11 10 10 11 10 10 10 12 10
10 10 10 9 8 7 7 7 6 6 6 6 5 5 6 6 7 7 7 7 8 8 9 9 8 11 11 14 13 13 12 13 12 12 10 11 12 14 12 10 10 10 11
10 10 8 7 7 6 6 6 6 5 5 5 5 5 6 6 6 7 7 7 8 9 10 8 10 13 14 11 12 13 15 15 14 14 11 10 10 10 9 10 12 9 11
Wind_Direction
200 200 205 206 208 208 211 217 218 224 227 230 232 236 238 240 233 229 234 234 226 231 221 216 223 218 217 208 201 185 213 212 230 196 217 193 178 185 203 205 221 228 232
199 200 206 206 205 208 213 214 211 218 219 224 226 232 234 229 212 210 227 227 223 227 223 207 218 213 216 210 208 206 212 206 194 216 191 187 206 198 219 217 217 225 239
199 200 203 204 203 208 213 215 212 219 224 228 229 233 233 224 221 231 238 238 231 230 217 209 221 205 223 212 205 209 204 191 192 183 186 137 178 196 212 224 237 246 240
202 204 209 211 210 212 210 216 219 222 231 234 236 238 236 234 236 229 227 234 233 235 235 226 223 218 219 215 213 197 186 167 159 161 143 149 205 177 241 248 234 236 266
201 207 215 215 215 213 212 216 220 224 228 230 234 237 239 237 236 229 226 229 236 241 236 228 220 216 225 203 191 177 156 137 137 156 163 158 199 191 228 246 258 276 271
201 209 211 209 206 207 209 214 216 221 228 227 231 234 241 238 235 221 226 231 236 232 218 72 70 87 98 90 98 108 135 141 148 156 148 197 189 209 235 249 262 261 276
197 202 201 202 211 215 211 217 225 232 232 228 236 241 258 321 302 240 237 303 84 97 114 111 97 94 91 88 69 77 72 74 84 136 175 188 237 245 256 261 257 262 261
171 163 164 175 176 183 201 218 124 55 69 68 60 57 61 30 27 93 90 82 72 62 58 66 81 81 67 90 94 76 71 68 71 72 246 236 237 242 248 267 278 281 279
96 99 109 121 104 94 86 85 85 85 72 64 58 61 66 50 49 63 82 78 75 66 61 57 60 68 70 65 75 78 71 89 103 78 50 21 346 319 312 286 263 266 271
75 71 70 76 82 83 82 79 76 79 81 79 72 64 65 65 56 67 78 82 82 76 70 68 59 59 60 72 91 112 125 135 124 112 220 242 274 253 326 283 289 277 283
85 79 70 64 70 74 77 76 84 84 83 76 74 63 61 58 62 68 68 69 77 79 74 71 59 53 54 63 127 148 130 141 162 212 269 285 291 324 285 273 290 278 271
74 70 66 62 62 67 72 70 70 74 75 72 73 69 58 59 63 66 69 68 66 76 77 71 62 48 43 102 121 123 112 120 202 250 280 288 287 274 286 293 287 284 277
74 68 66 67 64 62 69 71 74 74 78 79 80 79 70 57 57 62 67 68 64 71 67 68 53 0 304 193 130 111 118 72 325 298 295 292 291 315 303 299 293 290 281
85 80 74 71 69 64 62 56 62 66 74 76 76 76 78 69 62 59 59 63 71 67 61 46 8 309 335 84 129 99 49 20 332 304 309 303 311 303 304 305 300 295 292
87 82 77 74 73 72 63 58 64 55 58 72 71 72 75 73 64 63 53 47 41 40 4 12 15 360 337 320 280 262 358 336 319 329 316 315 305 305 303 305 296 299 292
86 81 80 82 82 82 83 80 67 67 67 68 64 70 73 71 62 52 48 41 32 20 12 357 355 350 335 330 322 331 343 330 335 327 320 314 314 309 308 307 303 299 299
86 86 82 76 78 80 81 92 96 77 64 59 62 63 61 57 49 40 37 42 38 25 30 23 16 6 355 351 344 338 331 341 339 322 319 316 312 309 306 307 304 303 302
79 75 77 77 78 78 77 75 73 74 72 65 51 51 53 52 49 43 34 33 27 29 19 4 355 353 348 344 342 341 335 328 326 325 320 316 311 305 303 304 309 308 309
79 78 78 76 71 73 73 72 72 71 68 62 54 52 42 47 48 44 37 36 23 21 9 4 360 355 347 340 338 330 330 322 322 315 310 309 308 301 303 304 302 301 302
77 78 80 80 77 73 71 73 74 74 71 62 50 36 21 31 36 35 39 32 27 20 6 359 355 350 341 335 329 325 320 317 316 312 314 308 307 304 300 299 297 300 304
86 81 83 79 75 74 72 73 72 69 68 62 60 37 34 38 35 33 29 25 16 9 2 353 345 337 330 325 321 321 317 313 310 309 306 305 305 297 293 295 296 302 303
86 83 78 76 75 75 75 71 68 65 56 51 44 49 35 38 28 21 16 15 1 352 345 338 328 326 322 322 319 314 307 306 306 307 307 303 301 302 303 304 303 303 304
84 85 83 81 81 78 70 65 62 60 57 50 41 34 28 24 15 7 358 349 338 335 334 325 321 319 318 316 312 307 304 304 307 306 303 303 303 304 305 303 303 303 306
86 88 85 78 71 71 68 64 65 60 53 45 32 21 11 359 352 352 345 339 334 333 328 324 314 315 318 314 310 308 300 303 300 297 302 299 297 298 299 300 300 300 296
82 82 78 76 74 75 76 68 62 49 39 26 14 5 359 352 351 349 341 334 331 327 325 321 320 320 316 315 304 303 301 300 296 301 294 289 288 291 288 290 292 293 294
83 82 83 82 81 77 70 62 49 34 21 9 5 1 353 345 341 337 335 331 332 324 323 322 317 318 315 308 306 310 308 303 299 297 293 287 286 286 286 287 289 292 295